Location: NJAA Observatory
(40.6819°N, 74.8979°W)
Time: 10:11:55
(UTC-05:00)

Courier 1B - All Passes

Search period start: 04 March 2015 00:00
Search period end: 14 March 2015 01:00
Orbit: 963 x 1209 km, 28.3° (Epoch: 02 March)

Date Brightness Start Highest point End Pass type
(mag) Time Alt. Az. Time Alt. Az. Time Alt. Az.
04 Mar - 03:51:20 10° SSW 03:56:03 18° SSE 04:01:02 10° ESE visible
04 Mar - 05:42:54 10° SW 05:49:25 30° S 05:56:04 10° ESE visible
04 Mar - 07:36:16 10° WSW 07:42:59 32° S 07:49:39 10° SE daylight
04 Mar - 09:30:56 10° WSW 09:36:25 20° SSW 09:41:41 10° SSE daylight
05 Mar - 02:58:59 10° S 03:02:27 14° SSE 03:06:13 10° SE visible
05 Mar - 04:49:31 10° SW 04:55:42 28° SSE 05:02:06 10° ESE visible
05 Mar - 06:42:30 10° WSW 06:49:14 33° S 06:56:02 10° ESE daylight
05 Mar - 08:36:42 10° WSW 08:42:45 24° SSW 08:48:38 10° SSE daylight
05 Mar - 10:35:23 10° SSW 10:35:59 10° SSW 10:36:14 10° SSW daylight
06 Mar - 03:56:19 10° SSW 04:02:02 24° SSE 04:08:01 10° ESE visible
06 Mar - 05:48:51 10° WSW 05:55:30 33° S 06:02:18 10° ESE visible
06 Mar - 07:42:41 10° WSW 07:49:02 27° SSW 07:55:22 10° SE daylight
06 Mar - 09:38:35 10° SW 09:42:23 14° SSW 09:45:53 10° S daylight
07 Mar - 03:03:21 10° SSW 03:08:25 20° SSE 03:13:45 10° ESE visible
07 Mar - 04:55:19 10° SW 05:01:46 31° S 05:08:27 10° ESE visible
07 Mar - 06:48:48 10° WSW 06:55:19 30° S 07:01:54 10° SE daylight
07 Mar - 08:43:48 10° WSW 08:48:44 18° SSW 08:53:30 10° SSE daylight
08 Mar - 03:10:45 10° SSW 03:14:50 16° SSE 03:19:13 10° ESE visible
08 Mar - 05:01:55 10° SW 05:08:05 29° S 05:14:32 10° ESE visible
08 Mar - 06:55:03 10° WSW 07:01:36 32° S 07:08:17 10° SE visible
08 Mar - 08:49:27 10° WSW 08:55:04 21° SSW 09:00:36 10° SSE daylight
09 Mar - 02:18:50 10° S 02:21:17 12° SSE 02:24:04 10° SE night (unlit)
09 Mar - 04:08:40 10° SW 04:14:26 26° SSE 04:20:30 10° ESE visible
09 Mar - 06:01:24 10° WSW 06:07:53 32° S 06:14:35 10° ESE visible
09 Mar - 07:55:23 10° WSW 08:01:23 25° SSW 08:07:24 10° SE daylight
09 Mar - 09:52:30 10° SW 09:54:42 11° SSW 09:56:33 10° SSW daylight
10 Mar - 03:15:37 10° SSW 03:20:50 22° SSE 03:26:21 10° ESE visible
10 Mar - 05:07:53 10° SW 05:14:10 31° S 05:20:46 10° ESE visible
10 Mar - 07:01:29 10° WSW 07:07:41 27° SSW 07:14:00 10° SE daylight
10 Mar - 08:56:59 10° SW 09:01:03 15° SSW 09:04:55 10° S daylight
11 Mar - 02:22:49 10° SSW 02:27:16 18° SSE 02:32:00 10° ESE visible
11 Mar - 04:14:28 10° SW 04:20:31 30° S 04:26:53 10° ESE visible
11 Mar - 06:07:44 10° WSW 06:13:59 30° S 06:20:27 10° SE visible
11 Mar - 08:02:26 10° WSW 08:07:24 18° SSW 08:12:18 10° SSE daylight
12 Mar - 01:30:27 10° S 01:33:46 14° SSE 01:37:20 10° SE night (unlit)
12 Mar - 03:21:11 10° SW 03:26:53 27° S 03:32:55 10° ESE visible
12 Mar - 05:14:06 10° WSW 05:20:18 31° S 05:26:47 10° SE visible
12 Mar - 07:08:16 10° WSW 07:13:44 22° SSW 07:19:15 10° SSE daylight
13 Mar - 00:39:29 10° SSE 00:40:16 10° SSE 00:41:20 10° SE night (unlit)
13 Mar - 02:28:03 10° SW 02:33:19 24° SSE 02:38:53 10° ESE visible
13 Mar - 04:20:34 10° WSW 04:26:38 31° S 04:33:02 10° ESE visible
13 Mar - 06:14:20 10° WSW 06:20:04 24° SSW 06:25:57 10° SE visible
13 Mar - 08:10:57 10° SW 08:13:23 11° SSW 08:15:34 10° S daylight
